# Land Stadt Wetter Temperatur Luftdruck Luftfeuchtigkeit Sichtweite Windgeschwindigkeit Windrichtung Ortszeit
1 ad Andorra la Vella Clouds 2 1021 95 0 11 15 02.08.2018 14:22
2 ae Dubai Clouds 18 1018 34 10000 8 0 02.08.2018 14:21
3 af Kabul Clouds 4 1025 44 10000 11 330 02.08.2018 14:21
4 ar Buenos Aires Clouds 21 1004 88 10000 13 250 02.08.2018 14:22
5 ar Esquel Clear 13 1017 47 10000 17 240 02.08.2018 14:22
6 ar Ushuaia Rain 9 981 70 10000 17 360 02.08.2018 14:22
7 at Innsbruck Clouds 3 1025 86 10000 4 0 02.08.2018 14:23
8 at Wien Clouds 8 1022 70 10000 30 300 02.08.2018 14:22
9 au Alice Springs Clear 36 1012 13 10000 24 120 02.08.2018 14:21
10 au Darwin Clouds 34 1006 56 10000 28 290 02.08.2018 14:22
11 au Perth Clouds 31 1015 28 10000 28 110 02.08.2018 14:21
12 au Sydney Clouds 32 1005 51 10000 28 50 02.08.2018 14:22
13 bg Sofia Clear 1 1021 92 7000 4 0 02.08.2018 14:21
14 bg Warna Clear 2 1020 100 10000 13 100 02.08.2018 14:21
15 bo La Paz Clouds 7 1038 87 10000 8 340 02.08.2018 14:22
16 bo Potisi Rain 8 1014 84 0 11 10 02.08.2018 14:22
17 br Manaus Clouds 26 1010 94 10000 5 40 02.08.2018 14:21
18 br Rio de Janeiro Clouds 26 1012 88 10000 4 70 02.08.2018 14:22
19 bs Nassau Clouds 24 1021 78 10000 13 110 02.08.2018 14:22
20 ca Montreal Clear -16 1032 71 14484 7 102 02.08.2018 14:22
21 cd Kisangani Rain 21 1013 99 0 3 274 02.08.2018 14:23
22 ch Andermatt Clouds 2 1028 80 0 13 240 02.08.2018 14:23
23 ch Bern Rain 3 1029 75 10000 17 280 02.08.2018 14:23
24 ck Avarua Rain 27 1002 88 10000 31 50 02.08.2018 14:22
25 cl Santiago Clear 21 1012 40 10000 18 190 02.08.2018 14:23
26 cn Lhasa Clouds 3 1019 6 0 23 330 02.08.2018 14:22
27 cn Peking Clouds 11 1026 25 10000 4 0 02.08.2018 14:23
28 cn Shanghai Clouds 9 1032 31 10000 11 360 02.08.2018 14:21
29 de Berlin Clouds 7 1014 81 10000 28 240 02.08.2018 14:21
30 de Braunschweig Clouds 6 1014 81 10000 26 230 02.08.2018 14:21
31 de Bremen Rain 6 1013 93 10000 28 280 02.08.2018 14:22
32 de Dresden Clouds 6 1017 75 10000 21 250 02.08.2018 14:22
33 de Emden Rain 5 1012 75 10000 31 260 02.08.2018 14:21
34 de Flensburg Clouds 6 1009 81 10000 31 250 02.08.2018 14:21
35 de Frankfurt Clouds 6 1023 75 10000 21 190 02.08.2018 14:22
36 de Freiburg Clouds 5 1028 86 10000 11 190 02.08.2018 14:22
37 de Hamburg Clouds 6 1011 81 10000 22 240 02.08.2018 14:21
38 de Hannover Clouds 7 1014 81 10000 24 260 02.08.2018 14:21
39 de Helgoland Clouds 6 1010 87 10000 31 250 02.08.2018 14:22
40 de Hiddensee Clouds 6 1014 86 0 2 225 02.08.2018 14:21
41 de Kassel Clouds 6 1019 81 10000 18 210 02.08.2018 14:21
42 de Köln Clouds 6 1021 75 10000 24 230 02.08.2018 14:21
43 de Magdeburg Rain 6 1016 85 0 16 228 02.08.2018 14:22
44 de München Clouds 5 1025 80 10000 24 260 02.08.2018 14:21
45 de Nürnberg Clouds 5 1023 100 10000 26 240 02.08.2018 14:21
46 de Oberstdorf Rain 3 1028 75 10000 17 230 02.08.2018 14:21
47 de Stuttgart Clouds 4 1025 86 10000 9 230 02.08.2018 14:22
48 de Torfhaus Rain 5 1015 92 0 3 270 02.08.2018 14:22
49 de Trier Clouds 4 1022 86 10000 26 220 02.08.2018 14:21
50 do Santo Domingo Clouds 24 1018 88 10000 8 360 02.08.2018 14:21
51 ec San Cristobal Clear 26 1008 87 0 14 139 02.08.2018 14:22
52 eg Kairo Mist 11 1017 93 3000 5 350 02.08.2018 14:22
53 es Barcelona Clouds 10 1030 81 10000 13 310 02.08.2018 14:22
54 es Las Palmas de Gran Canaria Clouds 18 1025 77 10000 35 10 02.08.2018 14:21
55 es Madrid Clouds 5 1030 80 10000 11 350 02.08.2018 14:23
56 es Palma de Mallorca Clouds 13 1030 76 10000 15 50 02.08.2018 14:22
57 es Sevilla Clouds 13 1027 87 10000 5 30 02.08.2018 14:22
58 es Tarifa Clouds 13 1026 100 5000 8 80 02.08.2018 14:21
59 et Addis Abeba Clouds 16 1027 59 10000 8 90 02.08.2018 14:23
60 fi Helsinki Rain 5 987 93 10000 28 220 02.08.2018 14:21
61 fi Rovaniemi Snow -2 970 92 2500 9 230 02.08.2018 14:21
62 fj Suva Clouds 30 1002 62 10000 15 140 02.08.2018 14:21
63 fr Bordeaux Clear 4 1033 93 10000 5 190 02.08.2018 14:21
64 fr Nizza Clouds 8 1021 87 10000 17 320 02.08.2018 14:22
65 fr Paris Clouds 4 1027 80 10000 15 230 02.08.2018 14:22
66 gb Glasgow Rain 4 1004 93 7000 26 230 02.08.2018 14:21
67 gb London Clear 4 1019 75 10000 22 240 02.08.2018 14:22
68 gb Manchester Clouds 4 1013 72 10000 17 220 02.08.2018 14:21
69 gl Nuuk Clouds -9 999 66 0 15 80 02.08.2018 14:22
70 gr Athen Clouds 6 1020 86 10000 5 0 02.08.2018 14:22
71 id Jakarta Clouds 31 1012 70 8000 17 340 02.08.2018 14:22
72 ie Dublin Rain 4 1012 86 10000 22 230 02.08.2018 14:21
73 in Jagatsukh Clouds 12 1020 18 0 9 208 02.08.2018 14:22
74 in Mumbai Smoke 32 1015 35 2500 11 110 02.08.2018 14:22
75 in Nagpur Clear 24 1019 29 8000 5 30 02.08.2018 14:21
76 iq Bagdad Mist 9 1021 93 4000 9 330 02.08.2018 14:22
77 is Reykjavik Clouds 0 986 75 10000 18 50 02.08.2018 14:22
78 it Mailand Mist 5 1022 100 2500 8 250 02.08.2018 14:21
79 it Palermo Clouds 8 1025 65 10000 5 150 02.08.2018 14:22
80 it Rom Clouds 6 1025 93 10000 2 0 02.08.2018 14:23
81 jp Nagasaki Clouds 7 1024 56 10000 28 330 02.08.2018 14:21
82 jp Tokio Clouds 11 1009 32 10000 17 130 02.08.2018 14:22
83 ke Nairobi Clouds 17 1021 88 10000 9 70 02.08.2018 14:22
84 kr Seoul Clear -1 1027 26 10000 5 220 02.08.2018 14:21
85 ma Casablanca Clouds 13 1027 93 8000 15 30 02.08.2018 14:23
86 ma Marrakesch Clear 11 1025 66 10000 8 290 02.08.2018 14:23
87 mg Antananarivo Clouds 20 1021 88 10000 13 140 02.08.2018 14:21
88 mn Ulaanbaatar Smoke -12 1023 60 5000 4 0 02.08.2018 14:23
89 mn Uliastai Clouds -11 1029 55 0 2 290 02.08.2018 14:23
90 mv Male Clouds 30 1013 70 9000 28 70 02.08.2018 14:23
91 mx Mexiko Stadt Clear 18 1024 19 16093 21 280 02.08.2018 14:21
92 mx Veracruz Clear 24 1012 94 9656 7 165 02.08.2018 14:21
93 no Hammerfest Snow 0 970 93 10000 76 350 02.08.2018 14:22
94 no Oslo Clouds 3 987 70 10000 22 180 02.08.2018 14:23
95 nz Wellington Rain 19 1014 82 10000 31 10 02.08.2018 14:23
96 pe Cusco Clouds 8 1032 71 10000 5 270 02.08.2018 14:23
97 pg Port Moresby Clouds 32 1006 70 10000 28 280 02.08.2018 14:21
98 ph Manila Clouds 30 1015 58 10000 15 280 02.08.2018 14:21
99 pt Lissabon Clear 10 1031 81 10000 18 320 02.08.2018 14:22
100 qa Doha Clouds 20 1018 77 10000 12 116 02.08.2018 14:23
101 ru Amderma Clouds -3 967 84 0 58 189 02.08.2018 14:23
102 ru Anadyr Clouds -27 1009 75 10000 22 350 02.08.2018 14:23
103 ru Jakutsk Clouds -27 1022 75 10000 4 349 02.08.2018 14:22
104 ru Moskau Clouds 4 1009 90 10000 22 230 02.08.2018 14:22
105 ru Surgut Clouds -8 1006 78 10000 29 180 02.08.2018 14:23
106 ru Werchojansk Clouds -20 1023 95 0 2 183 02.08.2018 14:22
107 sa Riad Clouds 16 1019 25 10000 8 140 02.08.2018 14:21
108 sb Honiara Clouds 35 1000 50 10000 26 250 02.08.2018 14:22
109 se Stockholm Clouds 7 991 70 10000 22 240 02.08.2018 14:23
110 th Bangkok Clouds 31 1016 43 8000 22 80 02.08.2018 14:21
111 tr Alanya Haze 7 1018 81 5000 28 100 02.08.2018 14:22
112 tr Ankara Clear -5 1022 79 10000 2 40 02.08.2018 14:23
113 tr Istanbul Clear 3 1022 86 10000 9 340 02.08.2018 14:23
114 ua Kiew Clouds 2 1016 86 10000 7 230 02.08.2018 14:21
115 us Chicago Rain 2 1010 100 6437 9 160 02.08.2018 14:23
116 us Death Valley Clouds 3 1016 37 0 6 8 02.08.2018 14:22
117 us Denver Snow -5 1022 86 16093 9 130 02.08.2018 14:21
118 us Fairbanks Clouds -14 1005 84 16093 4 26 02.08.2018 14:23
119 us Honolulu Clouds 22 1016 57 16093 26 60 02.08.2018 14:22
120 us Las Vegas Clear 13 1015 27 16093 8 350 02.08.2018 14:21
121 us Los Angeles Clear 13 1013 77 11265 3 216 02.08.2018 14:22
122 us Miami Clouds 23 1020 73 16093 8 100 02.08.2018 14:23
123 us New York Clear 2 1029 52 16093 17 100 02.08.2018 14:22
124 us Nome Snow -7 989 79 3219 28 30 02.08.2018 14:23
125 us Tucson Clear 13 1014 41 16093 5 220 02.08.2018 14:21
126 uy Montevideo Clouds 22 1001 88 10000 18 350 02.08.2018 14:22
127 vn Hanoi Clouds 20 1026 28 10000 9 90 02.08.2018 14:21
128 za Kapstadt Clear 18 1014 72 10000 13 220 02.08.2018 14:22